Weather History for KGZH - March, 2014

Change the Weather History Date:

Friday, March 21, 2014

  Actual Average (KPRN) Record (KPRN)
Temperature  
Mean Temperature 58 °F -  
Max Temperature 79 °F 72 °F 86 °F (1935)
Min Temperature 39 °F 46 °F 25 °F (1965)
Degree Days  
Heating Degree Days 6    
Growing Degree Days 8 (Base 50)    
Moisture  
Dew Point 39 °F    
Average Humidity 54    
Maximum Humidity 89    
Minimum Humidity 20    
Precipitation  
Precipitation 0.00 in - - ()
Sea Level Pressure  
Sea Level Pressure 30.08 in    
Wind  
Wind Speed 2 mph (SSW)    
Max Wind Speed 13 mph    
Max Gust Speed -    
Visibility 10 miles    
Events      
Averages and records for this station are not official NWS values.
T = Trace of Precipitation, MM = Missing Value Source: NWS Daily Summary

Daily Weather History Graph

Daily Weather History Graph

Search for Another Location

Airport or City:

Trip Planner

Search our weather history database for the weather conditions in past years. The results will help you decide how hot, cold, wet, or windy it might be!

Date:

Astronomy

Mar. 21, 2014 Rise Set
Actual Time 6:50 AM CDT 7:00 PM CDT
Civil Twilight 6:26 AM CDT 7:24 PM CDT
Nautical Twilight 5:58 AM CDT 7:52 PM CDT
Astronomical Twilight 5:29 AM CDT 8:21 PM CDT
Moon No Moon Rise 9:59 AM CDT (3/21)
Length of Visible Light 12h 58m
Length of Day
12h 09m
Waning Gibbous, 75% of the Moon is Illuminated
Mar 21
Waning Gibbous
Mar 23
Last Quarter
Mar 30
New
Apr 7
First Quarter
Apr 15
Full

Hourly Weather History & Observations

Time (CDT) Temp. Dew Point Humidity Pressure Visibility Wind Dir Wind Speed Gust Speed Precip Events Conditions
12:53 AM 45.0 °F 41.0 °F 86% 30.10 in 10.0 mi Calm Calm - N/A   Clear
1:53 AM 44.1 °F 39.9 °F 85% 30.10 in 10.0 mi Calm Calm - N/A   Clear
2:53 AM 43.0 °F 39.0 °F 86% 30.10 in 10.0 mi Calm Calm - N/A   Clear
3:53 AM 41.0 °F 37.0 °F 86% 30.10 in 8.0 mi Calm Calm - N/A   Clear
4:53 AM 41.0 °F 37.0 °F 86% 30.11 in 8.0 mi Calm Calm - N/A   Clear
5:53 AM 39.0 °F 36.0 °F 89% 30.11 in 7.0 mi Calm Calm - N/A   Clear
6:53 AM 39.0 °F 36.0 °F 89% 30.13 in 6.0 mi Calm Calm - N/A   Clear
7:53 AM 44.1 °F 39.0 °F 82% 30.14 in 10.0 mi Calm Calm - N/A   Clear
8:53 AM 54.0 °F 41.0 °F 62% 30.16 in 10.0 mi Calm Calm - N/A   Clear
9:53 AM 64.0 °F 37.0 °F 37% 30.16 in 10.0 mi East 3.5 mph - N/A   Clear
10:53 AM 70.0 °F 36.0 °F 29% 30.15 in 10.0 mi SSE 5.8 mph - N/A   Clear
11:53 AM 72.0 °F 32.0 °F 23% 30.13 in 10.0 mi SSW 5.8 mph - N/A   Clear
12:53 PM 73.9 °F 32.0 °F 21% 30.11 in 10.0 mi WSW 6.9 mph - N/A   Clear
1:53 PM 75.9 °F 32.0 °F 20% 30.07 in 10.0 mi SW 4.6 mph - N/A   Clear
2:53 PM 77.0 °F 33.1 °F 20% 30.04 in 10.0 mi North - - N/A   Clear
3:53 PM 78.1 °F 35.1 °F 21% 30.02 in 10.0 mi South 9.2 mph - N/A   Clear
4:53 PM 78.1 °F 37.0 °F 23% 30.01 in 10.0 mi SW 6.9 mph - N/A   Clear
5:53 PM 73.9 °F 39.9 °F 29% 30.02 in 10.0 mi SW 3.5 mph - N/A   Clear
6:53 PM 72.0 °F 42.1 °F 34% 30.04 in 10.0 mi SSW 12.7 mph - N/A   Clear
7:53 PM 68.0 °F 45.0 °F 43% 30.04 in 10.0 mi SSW 6.9 mph - N/A   Clear
8:53 PM 66.0 °F 46.0 °F 48% 30.05 in 10.0 mi SSW 5.8 mph - N/A   Clear
9:53 PM 64.0 °F 46.0 °F 52% 30.05 in 10.0 mi Calm Calm - N/A   Clear
10:53 PM 62.1 °F 48.0 °F 60% 30.05 in 10.0 mi South 3.5 mph - N/A   Clear
11:53 PM 55.0 °F 48.0 °F 77% 30.05 in 10.0 mi Calm Calm - N/A   Clear